Year,Month,Day,Hour,Minute,Value (Times are PST for temperature in C)
2023,04,17,00,03,3.10
2023,04,17,00,08,3.20
2023,04,17,00,13,3.00
2023,04,17,00,18,3.10
2023,04,17,00,23,2.80
2023,04,17,00,28,2.70
2023,04,17,00,33,2.70
2023,04,17,00,38,2.80
2023,04,17,00,43,2.90
2023,04,17,00,48,2.80
2023,04,17,00,53,2.90
2023,04,17,00,58,2.80
2023,04,17,01,03,2.90
2023,04,17,01,08,3.10
2023,04,17,01,13,3.20
2023,04,17,01,18,3.40
2023,04,17,01,23,3.40
2023,04,17,01,28,3.30
2023,04,17,01,33,3.20
2023,04,17,01,38,3.00
2023,04,17,01,43,3.10
2023,04,17,01,48,3.10
2023,04,17,01,53,3.10
2023,04,17,01,58,3.00
2023,04,17,02,03,2.90
2023,04,17,02,08,3.00
2023,04,17,02,13,2.90
2023,04,17,02,18,2.80
2023,04,17,02,23,2.80
2023,04,17,02,28,2.70
2023,04,17,02,33,2.70
2023,04,17,02,38,2.70
2023,04,17,02,43,2.70
2023,04,17,02,48,2.70
2023,04,17,02,53,2.70
2023,04,17,02,58,2.90
2023,04,17,03,03,3.00
2023,04,17,03,08,2.90
2023,04,17,03,13,3.00
2023,04,17,03,18,3.00
2023,04,17,03,23,3.00
2023,04,17,03,28,2.90
2023,04,17,03,33,3.10
2023,04,17,03,38,3.10
2023,04,17,03,43,3.00
2023,04,17,03,48,3.10
2023,04,17,03,53,3.00
2023,04,17,03,58,3.20
2023,04,17,04,03,3.10
2023,04,17,04,08,3.20
2023,04,17,04,13,3.30
2023,04,17,04,18,3.30
2023,04,17,04,23,3.40
2023,04,17,04,28,3.40
2023,04,17,04,33,3.30
2023,04,17,04,38,3.30
2023,04,17,04,43,3.30
2023,04,17,04,48,3.30
2023,04,17,04,53,3.30
2023,04,17,04,58,3.30
2023,04,17,05,03,3.30
2023,04,17,05,08,3.30
2023,04,17,05,13,3.20
2023,04,17,05,18,3.10
2023,04,17,05,23,3.10
2023,04,17,05,28,3.10
2023,04,17,05,33,3.00
2023,04,17,05,38,3.10
2023,04,17,05,43,3.10
2023,04,17,05,48,3.10
2023,04,17,05,53,3.20
2023,04,17,05,58,3.20
2023,04,17,06,03,3.20
2023,04,17,06,08,3.20
2023,04,17,06,13,3.20
2023,04,17,06,18,3.30
2023,04,17,06,23,3.30
2023,04,17,06,28,3.40
2023,04,17,06,33,3.50
2023,04,17,06,38,3.60
2023,04,17,06,43,3.60
2023,04,17,06,48,3.70
2023,04,17,06,53,3.80
2023,04,17,06,58,3.80
2023,04,17,07,03,3.90
2023,04,17,07,08,3.90
2023,04,17,07,13,3.90
2023,04,17,07,18,4.00
2023,04,17,07,23,3.90
2023,04,17,07,28,4.00
2023,04,17,07,33,4.00
2023,04,17,07,38,4.10
2023,04,17,07,43,4.10
2023,04,17,07,48,4.20
2023,04,17,07,53,4.20
2023,04,17,07,58,4.30
2023,04,17,08,03,4.30
2023,04,17,08,08,4.40
2023,04,17,08,13,4.40
2023,04,17,08,18,4.50
2023,04,17,08,23,4.60
2023,04,17,08,28,4.70
2023,04,17,08,33,4.70
2023,04,17,08,38,4.80
2023,04,17,08,43,4.90
2023,04,17,08,48,5.20
2023,04,17,08,53,5.60
2023,04,17,08,58,5.40
2023,04,17,09,03,5.80
2023,04,17,09,08,5.50
2023,04,17,09,13,5.50
2023,04,17,09,18,5.70
2023,04,17,09,23,5.70
2023,04,17,09,28,5.80
2023,04,17,09,33,5.80
2023,04,17,09,38,5.90
2023,04,17,09,43,5.90
2023,04,17,09,48,5.90
2023,04,17,09,53,5.90
2023,04,17,09,58,5.90
2023,04,17,10,03,6.00
2023,04,17,10,08,6.10
2023,04,17,10,13,6.10
2023,04,17,10,18,6.20
2023,04,17,10,23,6.10
2023,04,17,10,28,6.10
2023,04,17,10,33,6.20
2023,04,17,10,38,6.20
2023,04,17,10,43,6.20
2023,04,17,10,48,6.30
2023,04,17,10,53,6.40
2023,04,17,10,58,6.50
2023,04,17,11,03,6.60
2023,04,17,11,08,6.60
2023,04,17,11,13,6.60
2023,04,17,11,18,6.60
2023,04,17,11,23,6.80
2023,04,17,11,28,6.90
2023,04,17,11,33,6.90
2023,04,17,11,38,7.00
2023,04,17,11,43,7.00
2023,04,17,11,48,7.00
2023,04,17,11,53,7.10
2023,04,17,11,58,7.10
2023,04,17,12,03,7.10
2023,04,17,12,08,7.10
2023,04,17,12,13,7.10
2023,04,17,12,18,7.10
2023,04,17,12,23,7.00
2023,04,17,12,28,7.00
2023,04,17,12,33,7.00
2023,04,17,12,38,7.10
2023,04,17,12,43,7.00
2023,04,17,12,48,7.10
2023,04,17,12,53,7.10
2023,04,17,12,58,7.20
2023,04,17,13,03,7.20
2023,04,17,13,13,7.20
2023,04,17,13,18,7.20
2023,04,17,13,23,7.20
2023,04,17,13,28,7.30
2023,04,17,13,33,7.30
2023,04,17,13,38,7.40
2023,04,17,13,43,7.40
2023,04,17,13,48,7.40
2023,04,17,13,53,7.50
2023,04,17,13,58,7.60
2023,04,17,14,03,7.70
2023,04,17,14,08,7.70
2023,04,17,14,13,7.70
2023,04,17,14,18,7.70
2023,04,17,14,23,7.50
2023,04,17,14,28,7.30
2023,04,17,14,33,7.10
2023,04,17,14,38,6.90
2023,04,17,14,43,6.90
2023,04,17,14,48,6.80
2023,04,17,14,53,6.60
2023,04,17,14,58,6.40
2023,04,17,15,03,6.40
2023,04,17,15,08,6.40
2023,04,17,15,13,6.40
2023,04,17,15,18,6.40
2023,04,17,15,23,6.40
2023,04,17,15,28,6.40
2023,04,17,15,38,6.40
2023,04,17,15,48,6.80
2023,04,17,15,53,6.80
2023,04,17,15,58,6.70
2023,04,17,16,03,6.80
2023,04,17,16,08,7.00
2023,04,17,16,13,7.40
2023,04,17,16,18,7.50
2023,04,17,16,23,7.10
2023,04,17,16,28,7.10
2023,04,17,16,33,7.00
2023,04,17,16,38,7.00
2023,04,17,16,43,7.00
2023,04,17,16,48,7.00
2023,04,17,16,53,7.00
2023,04,17,16,58,7.00
2023,04,17,17,03,6.80
2023,04,17,17,08,6.60
2023,04,17,17,13,6.40
2023,04,17,17,18,6.30
2023,04,17,17,23,6.00
2023,04,17,17,28,5.90
2023,04,17,17,33,5.90
2023,04,17,17,38,5.90
2023,04,17,17,43,5.70
2023,04,17,17,48,5.70
2023,04,17,17,53,5.60
2023,04,17,17,58,5.60
2023,04,17,18,03,5.60
2023,04,17,18,08,5.60
2023,04,17,18,13,5.60
2023,04,17,18,18,5.60
2023,04,17,18,23,5.50
2023,04,17,18,28,5.50
2023,04,17,18,33,5.40
2023,04,17,18,38,5.40
2023,04,17,18,43,5.50
2023,04,17,18,48,5.50
2023,04,17,18,53,5.60
2023,04,17,18,58,5.60
2023,04,17,19,03,5.60
2023,04,17,19,08,5.50
2023,04,17,19,13,5.40
2023,04,17,19,18,5.40
2023,04,17,19,23,5.50
2023,04,17,19,28,5.40
2023,04,17,19,33,5.40
2023,04,17,19,38,5.50
2023,04,17,19,43,5.50
2023,04,17,19,48,5.50
2023,04,17,19,53,5.60
2023,04,17,19,58,5.60
2023,04,17,20,03,5.50
2023,04,17,20,08,5.50
2023,04,17,20,13,5.40
2023,04,17,20,18,5.40
2023,04,17,20,23,5.30
2023,04,17,20,28,5.30
2023,04,17,20,33,5.20
2023,04,17,20,38,5.10
2023,04,17,20,43,5.10
2023,04,17,20,48,5.10
2023,04,17,20,53,5.10
2023,04,17,20,58,5.00
2023,04,17,21,03,4.90
2023,04,17,21,08,4.80
2023,04,17,21,13,4.70
2023,04,17,21,18,4.60
2023,04,17,21,23,4.50
2023,04,17,21,28,4.60
2023,04,17,21,33,4.60
2023,04,17,21,38,4.60
2023,04,17,21,43,4.60
2023,04,17,21,48,4.70
2023,04,17,21,53,4.70
2023,04,17,21,58,4.60
2023,04,17,22,03,4.40
2023,04,17,22,08,4.40
2023,04,17,22,13,4.30
2023,04,17,22,18,4.30
2023,04,17,22,23,4.20
2023,04,17,22,28,4.20
2023,04,17,22,33,4.30
2023,04,17,22,38,4.20
2023,04,17,22,43,4.20
2023,04,17,22,48,4.30
2023,04,17,22,53,4.30
2023,04,17,22,58,4.40
2023,04,17,23,03,4.30
2023,04,17,23,13,4.20
2023,04,17,23,18,4.20
2023,04,17,23,23,4.20
2023,04,17,23,28,4.10
2023,04,17,23,33,4.20
2023,04,17,23,38,4.30
2023,04,17,23,43,4.20
2023,04,17,23,48,4.20
2023,04,17,23,53,4.20
2023,04,17,23,58,4.20
